FW5884 Weather Reports


Display with metric or nautical units.
time (UTC)temp
F
wind
direction
speed
MPH
gust
MPH
rain 1hr
in
rain 24hr
in
rain mn
in
humidity
%
barometer
mb
20260502214050 55 121 0.0 0.0 0.00 0.00 0.00 68 1020.9
20260502213555 55 121 0.0 0.0 0.00 0.00 0.00 67 1020.9
20260502213050 55 122 0.0 0.0 0.00 0.00 0.00 68 1020.9
20260502212550 55 121 0.0 0.0 0.00 0.00 0.00 67 1020.9
20260502212049 55 121 0.0 0.0 0.00 0.00 0.00 67 1020.8
20260502211548 56 121 0.0 0.0 0.00 0.00 0.00 67 1020.9
20260502211048 56 122 0.0 0.0 0.00 0.00 0.00 67 1020.9
20260502210548 56 121 0.0 0.0 0.00 0.00 0.00 67 1020.9
20260502210104 56 121 0.0 0.0 0.00 0.00 0.00 66 1020.8
20260502205550 57 120 0.0 0.0 0.00 0.00 0.00 65 1020.9
20260502205049 57 120 0.0 1.0 0.00 0.00 0.00 66 1021.1
20260502204550 57 95 0.0 1.0 0.00 0.00 0.00 66 1021.0
20260502204048 57 124 0.0 0.0 0.00 0.00 0.00 65 1021.0
20260502203548 57 124 0.0 0.0 0.00 0.00 0.00 65 1021.0
20260502203048 57 124 0.0 0.0 0.00 0.00 0.00 66 1021.0
20260502202547 57 124 0.0 0.0 0.00 0.00 0.00 67 1021.0
20260502202047 57 124 0.0 0.0 0.00 0.00 0.00 66 1021.0
20260502201550 57 124 0.0 0.0 0.00 0.00 0.00 66 1021.0
20260502201047 57 124 0.0 0.0 0.00 0.00 0.00 66 1021.0
20260502200547 58 124 0.0 0.0 0.00 0.00 0.00 66 1021.1
20260502200104 58 124 0.0 0.0 0.00 0.00 0.00 65 1021.1
20260502195549 58 124 0.0 0.0 0.00 0.00 0.00 64 1021.1
20260502195045 58 124 0.0 0.0 0.00 0.00 0.00 64 1021.1
20260502194545 59 124 0.0 0.0 0.00 0.00 0.00 63 1021.1
20260502194045 59 124 0.0 0.0 0.00 0.00 0.00 63 1020.9
20260502193545 59 124 0.0 0.0 0.00 0.00 0.00 63 1020.9
20260502193047 59 124 0.0 0.0 0.00 0.00 0.00 62 1020.9
20260502192545 59 124 0.0 0.0 0.00 0.00 0.00 62 1020.9
20260502192044 60 124 0.0 0.0 0.00 0.00 0.00 61 1020.8
20260502191556 60 124 0.0 0.0 0.00 0.00 0.00 60 1020.8
20260502191048 60 124 0.0 0.0 0.00 0.00 0.00 60 1020.8
20260502190544 61 124 0.0 0.0 0.00 0.00 0.00 59 1020.8
20260502190049 61 124 0.0 0.0 0.00 0.00 0.00 58 1020.7
20260502185543 61 124 0.0 0.0 0.00 0.00 0.00 58 1020.8
20260502185043 62 124 0.0 0.0 0.00 0.00 0.00 57 1020.7
20260502184545 62 124 0.0 0.0 0.00 0.00 0.00 56 1020.6
20260502184143 63 124 0.0 0.0 0.00 0.00 0.00 54 1020.6
20260502183546 63 124 0.0 0.0 0.00 0.00 0.00 54 1020.6
20260502183043 63 124 0.0 0.0 0.00 0.00 0.00 53 1020.4
20260502182542 63 124 0.0 0.0 0.00 0.00 0.00 53 1020.4
20260502182042 64 124 0.0 0.0 0.00 0.00 0.00 52 1020.4
20260502181542 64 124 0.0 0.0 0.00 0.00 0.00 51 1020.4
20260502181042 65 124 0.0 0.0 0.00 0.00 0.00 49 1020.4
20260502180542 65 124 0.0 0.0 0.00 0.00 0.00 49 1020.3
20260502164038 71 181 0.0 3.0 0.00 0.00 0.00 44 1020.2
20260502163537 72 81 0.0 4.0 0.00 0.00 0.00 43 1020.3
20260502163046 72 143 0.0 4.0 0.00 0.00 0.00 43 1020.3
20260502162536 72 150 0.0 4.0 0.00 0.00 0.00 42 1020.3
20260502162038 73 161 0.0 4.0 0.00 0.00 0.00 42 1020.3
20260502161534 73 155 1.0 4.0 0.00 0.00 0.00 42 1020.3
20260502161034 74 124 1.0 5.0 0.00 0.00 0.00 41 1020.2
20260502160534 75 171 0.0 5.0 0.00 0.00 0.00 40 1020.3
20260502152031 76 266 0.0 5.0 0.00 0.00 0.00 38 1020.6
20260502151554 76 300 0.0 6.0 0.00 0.00 0.00 39 1020.7
20260502151028 76 75 0.0 6.0 0.00 0.00 0.00 39 1020.8
20260502150528 77 101 0.0 3.0 0.00 0.00 0.00 38 1020.9
20260502130516 77 98 0.0 5.0 0.00 0.00 0.00 34 1021.8
20260502123512 76 258 0.0 6.0 0.00 0.00 0.00 38 1022.2
20260502123012 76 40 0.0 4.0 0.00 0.00 0.00 35 1022.3
20260502122511 75 312 1.0 5.0 0.00 0.00 0.00 35 1022.2
20260502122010 75 311 0.0 6.0 0.00 0.00 0.00 35 1022.4
20260502121513 76 51 1.0 7.0 0.00 0.00 0.00 35 1022.5
20260502121010 76 326 1.0 7.0 0.00 0.00 0.00 35 1022.5
20260502120509 76 284 0.0 7.0 0.00 0.00 0.00 34 1022.6
20260502115508 76 310 2.0 7.0 0.00 0.00 0.00 34 1022.6
20260502115007 76 284 0.0 4.0 0.00 0.00 0.00 35 1022.6
20260502114507 76 110 0.0 7.0 0.00 0.00 0.00 35 1022.7
20260502114006 75 155 0.0 7.0 0.00 0.00 0.00 35 1022.7
20260502113506 75 243 0.0 6.0 0.00 0.00 0.00 35 1022.8
20260502113005 75 56 0.0 6.0 0.00 0.00 0.00 34 1022.8
20260502112503 75 163 1.0 5.0 0.00 0.00 0.00 36 1022.9
20260502112005 75 312 0.0 5.0 0.00 0.00 0.00 36 1023.0
20260502111502 74 42 0.0 5.0 0.00 0.00 0.00 35 1023.1
20260502111001 75 281 0.0 6.0 0.00 0.00 0.00 34 1023.1
20260502110502 75 115 0.0 7.0 0.00 0.00 0.00 35 1023.2
20260502110002 75 319 1.0 7.0 0.00 0.00 0.00 34 1023.2
20260502105601 75 266 0.0 4.0 0.00 0.00 0.00 36 1023.3
20260502105059 74 273 0.0 6.0 0.00 0.00 0.00 34 1023.3
20260502104558 74 59 1.0 6.0 0.00 0.00 0.00 33 1023.4
20260502104057 74 307 0.0 5.0 0.00 0.00 0.00 36 1023.5
20260502103557 74 310 0.0 8.0 0.00 0.00 0.00 35 1023.5
20260502103107 74 276 2.0 8.0 0.00 0.00 0.00 35 1023.6
20260502102557 74 5 0.0 4.0 0.00 0.00 0.00 37 1023.6
20260502102055 74 309 0.0 6.0 0.00 0.00 0.00 38 1023.7
20260502101610 73 335 0.0 6.0 0.00 0.00 0.00 38 1023.8
20260502101054 73 18 0.0 6.0 0.00 0.00 0.00 36 1023.8
20260502100554 73 277 1.0 6.0 0.00 0.00 0.00 36 1023.7
20260502091045 72 142 0.0 4.0 0.00 0.00 0.00 42 1024.5
20260502090544 72 186 0.0 4.0 0.00 0.00 0.00 42 1024.4
20260502090110 72 158 0.0 3.0 0.00 0.00 0.00 41 1024.5
20260502071525 65 144 0.0 1.0 0.00 0.00 0.00 52 1025.1
20260502071024 64 143 0.0 0.0 0.00 0.00 0.00 54 1025.2
20260502070523 63 143 0.0 1.0 0.00 0.00 0.00 55 1025.2
20260502070038 63 141 0.0 1.0 0.00 0.00 0.00 55 1025.2
20260502065521 62 151 0.0 1.0 0.00 0.00 0.00 56 1025.4
20260502065020 62 143 0.0 1.0 0.00 0.00 0.00 56 1025.4
20260502064520 62 170 0.0 1.0 0.00 0.00 0.00 58 1025.5
20260502064018 62 139 0.0 1.0 0.00 0.00 0.00 57 1025.4
20260502063516 61 143 0.0 0.0 0.00 0.00 0.00 59 1025.5
20260502063031 60 155 0.0 1.0 0.00 0.00 0.00 62 1025.5
20260502062514 59 162 0.0 1.0 0.00 0.00 0.00 61 1025.7
20260502062019 59 139 0.0 1.0 0.00 0.00 0.00 62 1025.7
20260502061514 59 137 0.0 1.0 0.00 0.00 0.00 60 1025.7
20260502061017 59 155 0.0 0.0 0.00 0.00 0.00 60 1025.6
20260502060511 57 184 0.0 1.0 0.00 0.00 0.00 64 1025.6
20260502060010 56 192 0.0 1.0 0.00 0.00 0.00 65 1025.6
20260502055510 56 186 0.0 1.0 0.00 0.00 0.00 63 1025.7
20260502055009 55 142 0.0 0.0 0.00 0.00 0.00 65 1025.6
20260502054519 54 171 0.0 1.0 0.00 0.00 0.00 68 1025.8
20260502054006 52 141 0.0 2.0 0.00 0.00 0.00 70 1025.8
20260502053506 51 134 0.0 2.0 0.00 0.00 0.00 72 1025.7
20260502053006 50 185 0.0 2.0 0.00 0.00 0.00 72 1025.7
20260502052508 49 183 0.0 0.0 0.00 0.00 0.00 75 1025.8
20260502052006 48 148 0.0 0.0 0.00 0.00 0.00 77 1025.8
20260502051505 48 148 0.0 0.0 0.00 0.00 0.00 77 1025.9
20260502051008 47 148 0.0 0.0 0.00 0.00 0.00 77 1025.8
20260502050508 47 145 0.0 0.0 0.00 0.00 0.00 78 1025.9
20260502050006 47 145 0.0 0.0 0.00 0.00 0.00 78 1025.9
20260502045504 47 145 0.0 0.0 0.00 0.00 0.00 78 1025.8
20260502045005 46 145 0.0 0.0 0.00 0.00 0.00 78 1025.8
20260502044504 46 145 0.0 0.0 0.00 0.00 0.00 78 1025.8
20260502044002 46 145 0.0 0.0 0.00 0.00 0.00 77 1025.7
20260502043502 46 145 0.0 0.0 0.00 0.00 0.00 75 1025.8
20260502043001 47 145 0.0 0.0 0.00 0.00 0.00 74 1025.8
20260502042502 48 141 0.0 0.0 0.00 0.00 0.00 73 1025.6
20260502042100 48 184 0.0 0.0 0.00 0.00 0.00 73 1025.7
20260502041607 48 184 0.0 0.0 0.00 0.00 0.00 74 1025.6
20260502041100 47 153 0.0 0.0 0.00 0.00 0.00 75 1025.7
20260502040600 47 144 0.0 0.0 0.00 0.00 0.00 74 1025.7
20260502040100 48 144 0.0 0.0 0.00 0.00 0.00 73 1025.7
20260502035600 48 143 0.0 0.0 0.00 0.00 0.00 73 1025.6
20260502035100 47 143 0.0 0.0 0.00 0.00 0.00 74 1025.7
20260502034600 47 143 0.0 0.0 0.00 0.00 0.00 75 1025.7
20260502034100 46 146 0.0 0.0 0.00 0.00 0.00 75 1025.7
20260502033602 47 177 0.0 0.0 0.00 0.00 0.00 75 1025.6
20260502033117 47 177 0.0 0.0 0.00 0.00 0.00 75 1025.7
20260502032559 47 181 0.0 0.0 0.00 0.00 0.00 74 1025.5
20260502032102 46 142 0.0 0.0 0.00 0.00 0.00 75 1025.5
20260502031602 46 141 0.0 0.0 0.00 0.00 0.00 76 1025.5
20260502031058 47 141 0.0 0.0 0.00 0.00 0.00 75 1025.4
20260502030556 47 141 0.0 0.0 0.00 0.00 0.00 75 1025.5
20260502030058 47 141 0.0 0.0 0.00 0.00 0.00 74 1025.5
20260502025555 47 141 0.0 0.0 0.00 0.00 0.00 74 1025.6
20260502025058 47 141 0.0 0.0 0.00 0.00 0.00 73 1025.6
20260502024607 48 141 0.0 0.0 0.00 0.00 0.00 73 1025.7
20260502024055 48 141 0.0 0.0 0.00 0.00 0.00 72 1025.7
20260502023552 48 141 0.0 0.0 0.00 0.00 0.00 72 1025.8
20260502023107 49 141 0.0 0.0 0.00 0.00 0.00 71 1025.8
20260502022554 49 141 0.0 0.0 0.00 0.00 0.00 69 1025.7
20260502022050 50 141 0.0 1.0 0.00 0.00 0.00 68 1025.7
20260502021550 51 155 0.0 1.0 0.00 0.00 0.00 67 1025.7
20260502021049 51 188 0.0 2.0 0.00 0.00 0.00 67 1025.8
20260502020549 50 190 0.0 2.0 0.00 0.00 0.00 68 1025.7
20260502020053 49 193 0.0 1.0 0.00 0.00 0.00 70 1025.7
20260502015549 49 136 0.0 0.0 0.00 0.00 0.00 71 1025.7
20260502015048 49 136 0.0 0.0 0.00 0.00 0.00 70 1025.8
20260502014546 49 136 0.0 0.0 0.00 0.00 0.00 70 1025.6
20260502014045 50 138 0.0 0.0 0.00 0.00 0.00 69 1025.7
20260502013546 49 138 0.0 0.0 0.00 0.00 0.00 69 1025.9
20260502013045 49 139 0.0 0.0 0.00 0.00 0.00 69 1025.9
20260502012546 49 139 0.0 0.0 0.00 0.00 0.00 68 1025.9
20260502012044 50 139 0.0 0.0 0.00 0.00 0.00 68 1025.9
20260502011543 50 139 0.0 0.0 0.00 0.00 0.00 67 1025.9
20260502011043 50 137 0.0 0.0 0.00 0.00 0.00 67 1025.9
20260502010542 51 137 0.0 0.0 0.00 0.00 0.00 67 1025.9
20260502010042 51 136 0.0 1.0 0.00 0.00 0.00 67 1025.9
20260502005541 51 137 0.0 1.0 0.00 0.00 0.00 67 1026.0
20260502005041 51 136 0.0 0.0 0.00 0.00 0.00 67 1026.0
20260502004541 51 133 0.0 1.0 0.00 0.00 0.00 66 1026.0
20260502004041 51 134 0.0 1.0 0.00 0.00 0.00 66 1026.0
20260502003540 51 134 0.0 1.0 0.00 0.00 0.00 66 1026.1
20260502003040 51 136 0.0 3.0 0.00 0.00 0.00 66 1026.1
20260502002543 51 133 0.0 3.0 0.00 0.00 0.00 67 1026.2
20260502002040 51 140 0.0 0.0 0.00 0.00 0.00 66 1026.3
20260502001543 52 139 0.0 0.0 0.00 0.00 0.00 65 1026.3
20260502001043 52 139 0.0 0.0 0.00 0.00 0.00 64 1026.3
20260502000540 53 138 0.0 0.0 0.00 0.00 0.00 63 1026.2
20260502000059 53 139 0.0 2.0 0.00 0.00 0.00 62 1026.3
20260501235537 53 141 0.0 2.0 0.00 0.00 0.00 63 1026.1
20260501235035 53 197 0.0 1.0 0.00 0.00 0.00 62 1026.2
20260501234537 53 158 0.0 1.0 0.00 0.00 0.00 63 1026.2
20260501234034 52 146 0.0 1.0 0.00 0.00 0.00 63 1026.2
20260501233533 52 193 0.0 1.0 0.00 0.00 0.00 64 1026.3
20260501233033 52 129 0.0 1.0 0.00 0.00 0.00 65 1026.3
20260501232532 52 129 0.0 1.0 0.00 0.00 0.00 65 1026.2
20260501232032 51 129 0.0 2.0 0.00 0.00 0.00 66 1026.3
20260501231531 50 127 0.0 0.0 0.00 0.00 0.00 69 1026.3
20260501231031 50 127 0.0 0.0 0.00 0.00 0.00 69 1026.3
20260501230534 50 127 0.0 0.0 0.00 0.00 0.00 69 1026.4
20260501230030 50 127 0.0 0.0 0.00 0.00 0.00 68 1026.3
20260501225531 50 127 0.0 0.0 0.00 0.00 0.00 68 1026.3
20260501225027 50 127 0.0 0.0 0.00 0.00 0.00 67 1026.3
20260501224541 51 127 0.0 0.0 0.00 0.00 0.00 67 1026.3
20260501224026 51 127 0.0 0.0 0.00 0.00 0.00 67 1026.2
20260501223526 51 127 0.0 0.0 0.00 0.00 0.00 66 1026.3
20260501223025 51 127 0.0 0.0 0.00 0.00 0.00 66 1026.2
20260501222527 51 127 0.0 0.0 0.00 0.00 0.00 66 1026.2
20260501222025 51 127 0.0 0.0 0.00 0.00 0.00 65 1026.2
20260501221523 52 127 0.0 0.0 0.00 0.00 0.00 64 1026.2
20260501221022 52 127 0.0 0.0 0.00 0.00 0.00 64 1026.2
20260501220521 52 126 0.0 0.0 0.00 0.00 0.00 63 1026.0
20260501220029 52 126 0.0 0.0 0.00 0.00 0.00 63 1026.0
20260501215521 52 126 0.0 0.0 0.00 0.00 0.00 63 1026.1
20260501215020 52 125 0.0 0.0 0.00 0.00 0.00 62 1026.0
20260501214519 53 124 0.0 0.0 0.00 0.00 0.00 61 1026.0